SDO (36395 NORAD) Tracking and Keplerian Element Data

This shows tracking and keplerian element data for the satellite.

Feedback or suggestion? Click here.




ElementValue
Catalog36395
NameSDO
Epoch Orbit3230
Epoch Day322.36344444
Epoch Year2018
RAAN131.2328
Inclination29.4185
Eccentricity0.0001493
Argument of Perigee76.0072
Mean Anonmoly239.3972
Mean Motion1.00273087
Decay Rate-1.7E-07
L11 36395U 10005A 18322.36344444 -.00000017 00000-0 00000-0 0 9999
L22 36395 29.4185 131.2328 0001493 76.0072 239.3972 1.00273087 32307

Live tracking and technical data element details for SDO (NORAD 36395). SDO can be tracked NOW for your location showing map with azimuth and elevation plus other details from your city location.

Track the satellite on the map from your city or location and see movement details for azimuth, elevation, latitude, longitude, range, height, and movement on the map or in text.







IsCatalogInMostPopularTable: catalog: 36395, numindb: 53
Update: records affected: 1



GetName: 36395 SDO

Hit Count: updated at: Tue, 20 Nov 2018 00:53:19 GMT